Change the Weather History Date:

Sunday, January 26, 2014

  Actual Average Record
Temperature  
Mean Temperature 47 °F -  
Max Temperature 62 °F 49 °F 73 °F (2015)
Min Temperature 32 °F 25 °F 6 °F (1966)
Degree Days  
Heating Degree Days 18    
Moisture  
Dew Point 31 °F    
Average Humidity 59    
Maximum Humidity 84    
Minimum Humidity 36    
Precipitation  
Precipitation 0.00 in - - ()
Sea Level Pressure  
Sea Level Pressure 29.82 in    
Wind  
Wind Speed 7 mph (NNW)    
Max Wind Speed 41 mph    
Max Gust Speed 53 mph    
Visibility 10 miles    
Events      
Averages and records for this station are not official NWS values.
T = Trace of Precipitation, MM = Missing Value Source: NWS Daily Summary

Daily Weather History Graph

Daily Weather History Graph

Search for Another Location

Airport or City:

Trip Planner

Search our weather history database for the weather conditions in past years. The results will help you decide how hot, cold, wet, or windy it might be!

Date:

Astronomy

Jan. 26, 2014 Rise Set
Actual Time 7:38 AM CST 5:54 PM CST
Civil Twilight 7:10 AM CST 6:21 PM CST
Nautical Twilight 6:40 AM CST 6:52 PM CST
Astronomical Twilight 6:09 AM CST 7:23 PM CST
Moon 3:16 AM CST (1/26) 1:46 PM CST (1/26)
Length of Visible Light 11h 10m
Length of Day
10h 16m
Waning Crescent, 23% of the Moon is Illuminated
Jan 26
Waning Crescent
Jan 30
New
Feb 6
First Quarter
Feb 14
Full
Feb 22
Last Quarter

Hourly Weather History & Observations

Time (CST) Temp. Windchill Dew Point Humidity Pressure Visibility Wind Dir Wind Speed Gust Speed Precip Events Conditions
12:15 AM 34.0 °F - 29.1 °F 82% 29.91 in 10.0 mi Calm Calm - N/A   Clear
12:35 AM 37.2 °F - 30.6 °F 77% 29.90 in 10.0 mi Calm Calm - N/A   Clear
12:55 AM 37.4 °F 34.9 °F 30.2 °F 75% 29.89 in 10.0 mi South 3.5 mph - N/A   Clear
1:15 AM 37.4 °F - 30.2 °F 75% 29.88 in 10.0 mi Calm Calm - N/A   Clear
1:35 AM 37.6 °F - 30.4 °F 75% 29.88 in 10.0 mi Calm Calm - N/A   Clear
1:55 AM 38.8 °F 36.5 °F 30.9 °F 73% 29.87 in 10.0 mi South 3.5 mph - N/A   Clear
2:15 AM 39.9 °F 35.8 °F 31.5 °F 72% 29.86 in 10.0 mi South 5.8 mph - N/A   Clear
2:35 AM 40.5 °F 36.5 °F 31.6 °F 71% 29.85 in 10.0 mi South 5.8 mph - N/A   Clear
2:55 AM 39.7 °F 35.6 °F 31.1 °F 71% 29.85 in 10.0 mi South 5.8 mph - N/A   Clear
3:15 AM 40.1 °F 36.1 °F 31.5 °F 71% 29.84 in 10.0 mi SSW 5.8 mph - N/A   Clear
3:35 AM 38.5 °F 32.7 °F 30.7 °F 74% 29.84 in 10.0 mi SSW 8.1 mph - N/A   Clear
3:55 AM 36.7 °F 30.5 °F 30.6 °F 78% 29.83 in 10.0 mi SSW 8.1 mph - N/A   Clear
4:15 AM 37.0 °F 32.4 °F 30.9 °F 79% 29.82 in 10.0 mi SSW 5.8 mph - N/A   Clear
4:35 AM 36.7 °F 30.5 °F 30.2 °F 77% 29.81 in 10.0 mi SSW 8.1 mph - N/A   Clear
4:55 AM 35.1 °F 27.9 °F 29.7 °F 81% 29.80 in 10.0 mi SSW 9.2 mph - N/A   Clear
5:15 AM 34.9 °F 28.3 °F 29.8 °F 82% 29.80 in 10.0 mi SSW 8.1 mph - N/A   Clear
5:35 AM 36.0 °F 31.1 °F 29.8 °F 78% 29.79 in 10.0 mi SSW 5.8 mph - N/A   Clear
5:55 AM 36.3 °F 32.5 °F 30.0 °F 78% 29.78 in 10.0 mi SSW 4.6 mph - N/A   Clear
6:15 AM 35.6 °F 30.7 °F 29.7 °F 79% 29.78 in 10.0 mi SSW 5.8 mph - N/A   Clear
6:35 AM 34.9 °F 30.8 °F 29.7 °F 81% 29.78 in 10.0 mi SSW 4.6 mph - N/A   Clear
6:55 AM 35.6 °F 32.8 °F 29.8 °F 80% 29.78 in 10.0 mi SSW 3.5 mph - N/A   Clear
7:15 AM 34.5 °F - 28.9 °F 80% 29.78 in 10.0 mi Calm Calm - N/A   Clear
7:35 AM 32.9 °F 27.5 °F 28.4 °F 84% 29.78 in 10.0 mi WSW 5.8 mph - N/A   Clear
7:55 AM 33.6 °F 28.4 °F 28.9 °F 83% 29.77 in 10.0 mi WSW 5.8 mph - N/A   Clear
8:15 AM 35.4 °F 31.5 °F 29.7 °F 80% 29.77 in 10.0 mi SW 4.6 mph - N/A   Clear
8:35 AM 37.2 °F 31.2 °F 31.6 °F 80% 29.78 in 10.0 mi West 8.1 mph - N/A   Clear
8:55 AM 41.7 °F 38.8 °F 32.4 °F 69% 29.78 in 10.0 mi NW 4.6 mph - N/A   Clear
9:15 AM 45.0 °F 41.8 °F 32.5 °F 62% 29.78 in 10.0 mi WNW 5.8 mph - N/A   Clear
9:35 AM 45.9 °F 42.3 °F 32.4 °F 59% 29.78 in 10.0 mi WNW 6.9 mph - N/A   Clear
9:55 AM 49.3 °F - 33.1 °F 54% 29.78 in 10.0 mi NW 6.9 mph - N/A   Clear
10:15 AM 51.3 °F - 32.5 °F 49% 29.78 in 10.0 mi NW 6.9 mph - N/A   Clear
10:35 AM 53.6 °F - 32.0 °F 44% 29.78 in 10.0 mi NNW 8.1 mph - N/A   Clear
10:55 AM 55.8 °F - 32.0 °F 41% 29.78 in 10.0 mi NW 8.1 mph - N/A   Clear
11:15 AM 56.7 °F - 32.0 °F 39% 29.78 in 10.0 mi North 8.1 mph - N/A   Clear
11:35 AM 58.1 °F - 32.7 °F 38% 29.77 in 10.0 mi North 9.2 mph - N/A   Clear
11:55 AM 59.2 °F - 32.7 °F 37% 29.77 in 10.0 mi North 11.5 mph - N/A   Clear
12:15 PM 59.0 °F - 32.4 °F 37% 29.77 in 10.0 mi North 13.8 mph - N/A   Clear
12:35 PM 58.8 °F - 33.1 °F 38% 29.76 in 10.0 mi North 16.1 mph 21.9 mph N/A   Clear
12:55 PM 59.4 °F - 33.6 °F 38% 29.75 in 10.0 mi North 19.6 mph 24.2 mph N/A   Clear
1:15 PM 60.3 °F - 33.8 °F 37% 29.74 in 10.0 mi NNE 21.9 mph - N/A   Clear
1:35 PM 60.6 °F - 34.2 °F 37% 29.73 in 10.0 mi NNE 19.6 mph 26.5 mph N/A   Clear
1:55 PM 60.8 °F - 35.1 °F 38% 29.73 in 10.0 mi North 13.8 mph - N/A   Clear
2:15 PM 61.5 °F - 35.4 °F 38% 29.73 in 10.0 mi North 17.3 mph 23.0 mph N/A   Clear
2:35 PM 61.9 °F - 35.4 °F 37% 29.72 in 10.0 mi North 13.8 mph - N/A   Clear
2:55 PM 61.9 °F - 35.6 °F 38% 29.72 in 10.0 mi NNE 13.8 mph - N/A   Clear
3:15 PM 62.4 °F - 35.2 °F 36% 29.71 in 10.0 mi North 16.1 mph - N/A   Clear
3:35 PM 62.6 °F - 35.4 °F 36% 29.71 in 10.0 mi NNE 13.8 mph - N/A   Clear
3:55 PM 62.1 °F - 34.7 °F 36% 29.71 in 10.0 mi NNE 15.0 mph - N/A   Clear
4:15 PM 61.7 °F - 34.2 °F 36% 29.72 in 10.0 mi NNE 12.7 mph 19.6 mph N/A   Clear
4:35 PM 61.0 °F - 34.0 °F 36% 29.72 in 10.0 mi NNE 13.8 mph - N/A   Clear
4:55 PM 60.6 °F - 33.6 °F 36% 29.73 in 10.0 mi NNE 11.5 mph - N/A   Clear
5:15 PM 59.2 °F - 32.4 °F 36% 29.74 in 10.0 mi NNE 9.2 mph - N/A   Clear
5:35 PM 55.9 °F - 32.0 °F 40% 29.75 in 10.0 mi North 8.1 mph - N/A   Clear
5:55 PM 53.1 °F - 31.3 °F 43% 29.76 in 10.0 mi NNE 6.9 mph - N/A   Clear
6:15 PM 48.6 °F - 30.0 °F 49% 29.77 in 10.0 mi North 6.9 mph - N/A   Clear
6:35 PM 46.2 °F 42.2 °F 29.8 °F 53% 29.78 in 10.0 mi North 8.1 mph - N/A   Clear
6:55 PM 42.8 °F 38.6 °F 29.1 °F 58% 29.79 in 10.0 mi North 6.9 mph - N/A   Clear
7:15 PM 42.6 °F 39.9 °F 29.1 °F 59% 29.81 in 10.0 mi North 4.6 mph - N/A   Clear
7:35 PM 44.8 °F 41.0 °F 29.5 °F 55% 29.82 in 10.0 mi North 6.9 mph - N/A   Clear
7:55 PM 42.3 °F 36.3 °F 29.1 °F 60% 29.83 in 10.0 mi North 10.4 mph - N/A   Clear
8:15 PM 42.6 °F 36.3 °F 29.3 °F 59% 29.84 in 10.0 mi North 11.5 mph - N/A   Clear
8:35 PM 41.2 °F 35.5 °F 28.9 °F 62% 29.86 in 10.0 mi North 9.2 mph - N/A   Clear
8:55 PM 40.5 °F 34.6 °F 29.1 °F 64% 29.87 in 10.0 mi North 9.2 mph - N/A   Clear
9:15 PM 41.5 °F 35.4 °F 29.1 °F 61% 29.89 in 10.0 mi North 10.4 mph - N/A   Clear
9:35 PM 41.2 °F 35.5 °F 28.8 °F 61% 29.90 in 10.0 mi North 9.2 mph - N/A   Clear
9:55 PM 39.2 °F 32.5 °F 28.4 °F 65% 29.91 in 10.0 mi North 10.4 mph - N/A   Clear
10:15 PM 40.8 °F 27.9 °F 31.3 °F 69% 29.97 in 5.0 mi North 41.4 mph 52.9 mph N/A   Haze
10:35 PM 38.5 °F 24.7 °F 28.6 °F 68% 30.00 in 7.0 mi North 41.4 mph 51.8 mph N/A   Clear
10:55 PM 36.9 °F 24.4 °F 25.7 °F 64% 30.04 in 10.0 mi North 28.8 mph 48.3 mph N/A   Clear
11:15 PM 35.4 °F 22.5 °F 23.9 °F 63% 30.06 in 10.0 mi North 28.8 mph 41.4 mph N/A   Clear
11:35 PM 34.7 °F 22.0 °F 23.9 °F 65% 30.08 in 10.0 mi North 26.5 mph 39.1 mph N/A   Clear
11:55 PM 34.0 °F 20.5 °F 22.6 °F 63% 30.11 in 10.0 mi North 28.8 mph 43.7 mph N/A   Clear